Weather History for Corning, AR

Change the Weather History Date:

Thursday, October 11, 2012

  Actual Average (KARG) Record (KARG)
Temperature  
Mean Temperature 55 °F -  
Max Temperature 59 °F 70 °F 86 °F (2010)
Min Temperature 51 °F 49 °F 35 °F (2000)
Degree Days  
Heating Degree Days 10    
Growing Degree Days 5 (Base 50)    
Moisture  
Dew Point 46 °F    
Average Humidity 72    
Maximum Humidity 88    
Minimum Humidity 55    
Precipitation  
Precipitation 0.00 in - - ()
Sea Level Pressure  
Sea Level Pressure 30.19 in    
Wind  
Wind Speed 5 mph (SSE)    
Max Wind Speed 9 mph    
Max Gust Speed -    
Visibility 10 miles    
Events      
Averages and records for this station are not official NWS values.
T = Trace of Precipitation, MM = Missing Value Source: NWS Daily Summary

Daily Weather History Graph

Daily Weather History Graph

Search for Another Location

Airport:

Trip Planner

Search our weather history database for the weather conditions in past years. The results will help you decide how hot, cold, wet, or windy it might be!

Date:

Astronomy

Oct. 11, 2012 Rise Set
Actual Time 7:06 AM CDT 6:31 PM CDT
Civil Twilight 6:40 AM CDT 6:56 PM CDT
Nautical Twilight 6:10 AM CDT 7:26 PM CDT
Astronomical Twilight 5:41 AM CDT 7:56 PM CDT
Moon 2:52 AM CDT (10/11) 4:02 PM CDT (10/11)
Length of Visible Light 12h 16m
Length of Day
11h 24m
Waning Crescent, 18% of the Moon is Illuminated
Oct 11
Waning Crescent
Oct 15
New
Oct 21
First Quarter
Oct 29
Full
Nov 6
Last Quarter

Hourly Weather History & Observations

Time (CDT) Temp. Dew Point Humidity Pressure Visibility Wind Dir Wind Speed Gust Speed Precip Events Conditions
3:55 PM 59.0 °F 42.8 °F 55% 30.20 in 10.0 mi SE 5.8 mph - N/A   Unknown
4:15 PM 59.0 °F 42.8 °F 55% 30.20 in 10.0 mi SSE 6.9 mph - N/A   Unknown
4:35 PM 59.0 °F 42.8 °F 55% 30.20 in 10.0 mi SE 9.2 mph - N/A   Unknown
5:35 PM 59.0 °F 44.6 °F 59% 30.19 in 10.0 mi South 8.1 mph - N/A   Unknown
5:55 PM 57.2 °F 44.6 °F 63% 30.19 in 10.0 mi SSE 8.1 mph - N/A   Unknown
6:35 PM 57.2 °F 44.6 °F 63% 30.19 in 10.0 mi SSE 4.6 mph - N/A   Unknown
6:55 PM 57.2 °F 44.6 °F 63% 30.19 in 10.0 mi SSE 4.6 mph - N/A   Unknown
7:15 PM 57.2 °F 46.4 °F 67% 30.19 in 10.0 mi South 4.6 mph - N/A   Unknown
7:35 PM 57.2 °F 46.4 °F 67% 30.19 in 10.0 mi South 6.9 mph - N/A   Unknown
8:15 PM 57.2 °F 48.2 °F 72% 30.20 in 10.0 mi South 5.8 mph - N/A   Unknown
8:35 PM 55.4 °F 46.4 °F 72% 30.19 in 10.0 mi SSE 3.5 mph - N/A   Unknown
9:15 PM 55.4 °F 48.2 °F 77% 30.20 in 10.0 mi SE 4.6 mph - N/A   Unknown
9:35 PM 55.4 °F 48.2 °F 77% 30.20 in 10.0 mi ESE 3.5 mph - N/A   Unknown
9:55 PM 53.6 °F 48.2 °F 82% 30.20 in 10.0 mi East 4.6 mph - N/A   Unknown
10:35 PM 53.6 °F 48.2 °F 82% 30.20 in 10.0 mi SE 3.5 mph - N/A   Unknown
10:55 PM 51.8 °F 48.2 °F 88% 30.19 in 10.0 mi Calm Calm - N/A   Unknown
11:15 PM 51.8 °F 48.2 °F 88% 30.19 in 10.0 mi Calm Calm - N/A   Unknown
11:35 PM 53.6 °F 50.0 °F 88% 30.20 in 10.0 mi Calm Calm - N/A   Unknown
11:55 PM 53.6 °F 50.0 °F 88% 30.19 in 10.0 mi SW 3.5 mph - N/A   Unknown